West Columbia, WV

11:09 AM EST on February 07, 2016 (GMT -0500)
Point Pleasant

Weather History for K3I2 - January, 2012

Change the Weather History Date:

Tuesday, January 17, 2012

  Actual Average (KHTS) Record (KHTS)
Temperature  
Mean Temperature 48 °F 34 °F  
Max Temperature 60 °F 42 °F 74 °F (1932)
Min Temperature 35 °F 25 °F -14 °F (1982)
Degree Days  
Heating Degree Days 16 32  
Month to date heating degree days 533  
Since 1 July heating degree days 2288  
Cooling Degree Days 0 0  
Month to date cooling degree days 0  
Year to date cooling degree days 0  
Moisture  
Dew Point 42 °F    
Average Humidity 76    
Maximum Humidity 100    
Minimum Humidity 51    
Precipitation  
Precipitation 0.00 in 0.10 in 1.03 in (1978)
Month to date precipitation 1.62  
Year to date precipitation 1.62  
Snow  
Snow 0.00 in - - ()
Month to date snowfall  
Since 1 September snowfall  
Snow Depth -    
Sea Level Pressure  
Sea Level Pressure 29.86 in    
Wind  
Wind Speed 9 mph (WSW)    
Max Wind Speed 22 mph    
Max Gust Speed 31 mph    
Visibility 9 miles    
Events Rain    
T = Trace of Precipitation, MM = Missing Value Source: NWS Daily Summary

Daily Weather History Graph

Daily Weather History Graph

Search for Another Location

Airport or City:

Trip Planner

Search our weather history database for the weather conditions in past years. The results will help you decide how hot, cold, wet, or windy it might be!

Date:

Astronomy

Jan. 17, 2012 Rise Set
Actual Time 7:44 AM EST 5:32 PM EST
Civil Twilight 7:15 AM EST 6:01 PM EST
Nautical Twilight 6:43 AM EST 6:34 PM EST
Astronomical Twilight 6:11 AM EST 7:05 PM EST
Moon 2:03 AM EST (1/17) 12:24 PM EST (1/17)
Length of Visible Light 10h 45m
Length of Day
9h 47m
Waning Crescent, 35% of the Moon is Illuminated
Jan 17
Waning Crescent
Jan 23
New
Jan 30
First Quarter
Feb 7
Full
Feb 14
Last Quarter

Hourly Weather History & Observations

Time (EST) Temp. Windchill Dew Point Humidity Pressure Visibility Wind Dir Wind Speed Gust Speed Precip Events Conditions
12:15 AM 53.6 °F - 35.6 °F 51% 29.99 in 10.0 mi SW 9.2 mph - N/A   Overcast
12:35 AM 53.6 °F - 35.6 °F 51% 29.99 in 10.0 mi SW 5.8 mph - N/A   Overcast
1:15 AM 53.6 °F - 37.4 °F 54% 29.98 in 10.0 mi SW 11.5 mph 17.3 mph N/A Rain Light Rain
1:35 AM 53.6 °F - 37.4 °F 54% 29.97 in 10.0 mi SW 9.2 mph 17.3 mph N/A   Overcast
2:15 AM 51.8 °F - 37.4 °F 58% 29.96 in 10.0 mi SW 6.9 mph - N/A   Overcast
2:35 AM 53.6 °F - 35.6 °F 51% 29.95 in 10.0 mi SW 5.8 mph - N/A   Overcast
2:55 AM 53.6 °F - 35.6 °F 51% 29.94 in 10.0 mi SW 8.1 mph - N/A   Overcast
3:15 AM 53.6 °F - 35.6 °F 51% 29.94 in 10.0 mi SW 10.4 mph 18.4 mph N/A   Overcast
3:35 AM 53.6 °F - 37.4 °F 54% 29.93 in 10.0 mi SW 10.4 mph 17.3 mph N/A   Scattered Clouds
3:55 AM 51.8 °F - 37.4 °F 58% 29.92 in 10.0 mi SW 10.4 mph 20.7 mph N/A   Scattered Clouds
4:35 AM 50.0 °F - 42.8 °F 76% 29.93 in 7.0 mi SW 12.7 mph 19.6 mph N/A Rain Rain
4:55 AM 50.0 °F - 42.8 °F 76% 29.92 in 4.0 mi SW 11.5 mph 21.9 mph N/A Rain Rain
5:15 AM 48.2 °F - 44.6 °F 87% 29.93 in 4.0 mi SSW 12.7 mph 17.3 mph N/A Rain Heavy Rain
5:35 AM 46.4 °F - 44.6 °F 93% 29.91 in 4.0 mi Calm Calm - N/A Rain Rain
5:55 AM 46.4 °F - 44.6 °F 93% 29.89 in 7.0 mi Calm Calm - N/A Rain Light Rain
6:15 AM 46.4 °F - 46.4 °F 100% 29.93 in 10.0 mi Calm Calm - N/A   Overcast
6:35 AM 46.4 °F 45.2 °F 46.4 °F 100% 29.90 in 3.0 mi SSE 3.5 mph - N/A Rain Rain
7:15 AM 46.4 °F 45.2 °F 46.4 °F 100% 29.85 in 10.0 mi ESE 3.5 mph - N/A   Mostly Cloudy
7:35 AM 48.2 °F - 44.6 °F 87% 29.85 in 10.0 mi Calm Calm - N/A Rain Light Rain
7:55 AM 48.2 °F - 44.6 °F 87% 29.84 in 10.0 mi Calm Calm - N/A   Overcast
8:15 AM 48.2 °F - 44.6 °F 87% 29.82 in 10.0 mi Calm Calm - N/A   Overcast
8:35 AM 48.2 °F - 44.6 °F 87% 29.82 in 10.0 mi SSE 3.5 mph - N/A   Overcast
9:15 AM 50.0 °F - 44.6 °F 82% 29.81 in 10.0 mi SSW 5.8 mph - N/A   Overcast
10:15 AM 51.8 °F - 46.4 °F 82% 29.80 in 5.0 mi SSW 9.2 mph - N/A Rain Light Rain
10:35 AM 55.4 °F - 44.6 °F 67% 29.79 in 10.0 mi SW 15.0 mph 23.0 mph N/A   Overcast
10:55 AM 55.4 °F - 46.4 °F 72% 29.78 in 10.0 mi SW 17.3 mph 28.8 mph N/A   Overcast
11:15 AM 57.2 °F - 46.4 °F 67% 29.78 in 10.0 mi SW 21.9 mph 31.1 mph N/A   Overcast
11:35 AM 57.2 °F - 46.4 °F 67% 29.77 in 10.0 mi SW 19.6 mph 29.9 mph N/A   Overcast
11:55 AM 57.2 °F - 48.2 °F 72% 29.74 in 10.0 mi SW 15.0 mph 27.6 mph N/A   Overcast
12:15 PM 59.0 °F - 50.0 °F 72% 29.73 in 10.0 mi SW 17.3 mph 25.3 mph N/A   Mostly Cloudy
12:35 PM 60.8 °F - 50.0 °F 68% 29.71 in 10.0 mi SW 20.7 mph 31.1 mph N/A   Scattered Clouds
12:55 PM 59.0 °F - 50.0 °F 72% 29.69 in 10.0 mi SW 19.6 mph 26.5 mph N/A   Mostly Cloudy
1:15 PM 59.0 °F - 51.8 °F 77% 29.68 in 4.0 mi SW 13.8 mph 29.9 mph N/A Rain Rain
1:35 PM 51.8 °F - 51.8 °F 100% 29.75 in 2.0 mi WNW 11.5 mph 21.9 mph N/A Rain Heavy Rain
1:55 PM 51.8 °F - 51.8 °F 100% 29.76 in 2.0 mi WSW 8.1 mph 16.1 mph N/A Rain Rain
2:15 PM 51.8 °F - 51.8 °F 100% 29.71 in 4.0 mi SW 10.4 mph 16.1 mph N/A Rain Rain
2:35 PM 53.6 °F - 51.8 °F 94% 29.68 in 10.0 mi SW 12.7 mph 18.4 mph N/A Rain Light Rain
2:55 PM 53.6 °F - 51.8 °F 94% 29.69 in 10.0 mi SW 13.8 mph 17.3 mph N/A   Scattered Clouds
3:15 PM 53.6 °F - 51.8 °F 94% 29.70 in 10.0 mi SW 12.7 mph 20.7 mph N/A   Clear
3:35 PM 55.4 °F - 51.8 °F 88% 29.70 in 10.0 mi SW 17.3 mph 21.9 mph N/A   Clear
3:55 PM 55.4 °F - 51.8 °F 88% 29.70 in 10.0 mi WSW 16.1 mph 21.9 mph N/A   Scattered Clouds
4:15 PM 55.4 °F - 51.8 °F 88% 29.71 in 10.0 mi WSW 11.5 mph 19.6 mph N/A   Scattered Clouds
4:35 PM 57.2 °F - 51.8 °F 82% 29.71 in 10.0 mi SW 12.7 mph 19.6 mph N/A   Scattered Clouds
4:55 PM 55.4 °F - 51.8 °F 88% 29.73 in 10.0 mi WSW 6.9 mph - N/A   Mostly Cloudy
5:15 PM 55.4 °F - 51.8 °F 88% 29.74 in 10.0 mi WSW 4.6 mph - N/A   Mostly Cloudy
5:35 PM 55.4 °F - 50.0 °F 82% 29.74 in 10.0 mi WSW 11.5 mph - N/A   Mostly Cloudy
5:55 PM 55.4 °F - 46.4 °F 72% 29.76 in 10.0 mi West 4.6 mph 20.7 mph N/A   Scattered Clouds
6:15 PM 51.8 °F - 42.8 °F 71% 29.80 in 10.0 mi WNW 15.0 mph 31.1 mph N/A   Mostly Cloudy
6:35 PM 48.2 °F - 41.0 °F 76% 29.83 in 10.0 mi WNW 13.8 mph 24.2 mph N/A   Mostly Cloudy
6:55 PM 46.4 °F 40.1 °F 37.4 °F 71% 29.86 in 10.0 mi West 15.0 mph 24.2 mph N/A   Mostly Cloudy
7:15 PM 44.6 °F 39.2 °F 35.6 °F 71% 29.89 in 10.0 mi WNW 10.4 mph 16.1 mph N/A   Scattered Clouds
7:35 PM 44.6 °F 40.2 °F 35.6 °F 71% 29.91 in 10.0 mi WNW 8.1 mph - N/A   Mostly Cloudy
7:55 PM 42.8 °F 38.6 °F 33.8 °F 70% 29.93 in 10.0 mi WNW 6.9 mph - N/A   Overcast
8:15 PM 42.8 °F 36.6 °F 32.0 °F 66% 29.94 in 10.0 mi West 11.5 mph 21.9 mph N/A   Mostly Cloudy
8:55 PM 41.0 °F 34.7 °F 32.0 °F 70% 29.97 in 10.0 mi West 10.4 mph 16.1 mph N/A   Overcast
9:15 PM 41.0 °F 35.8 °F 32.0 °F 70% 29.99 in 10.0 mi WNW 8.1 mph 17.3 mph N/A   Overcast
9:35 PM 39.2 °F 33.6 °F 32.0 °F 75% 29.99 in 10.0 mi WNW 8.1 mph - N/A   Overcast
9:55 PM 39.2 °F 34.2 °F 30.2 °F 70% 30.01 in 10.0 mi WNW 6.9 mph 23.0 mph N/A   Overcast
10:15 PM 37.4 °F 33.8 °F 30.2 °F 75% 30.02 in 10.0 mi West 4.6 mph 20.7 mph N/A   Overcast
10:35 PM 37.4 °F 31.4 °F 28.4 °F 70% 30.03 in 10.0 mi WNW 8.1 mph 16.1 mph N/A   Overcast
10:55 PM 37.4 °F 30.8 °F 28.4 °F 70% 30.04 in 10.0 mi WNW 9.2 mph 17.3 mph N/A   Overcast
11:15 PM 37.4 °F 32.1 °F 28.4 °F 70% 30.05 in 10.0 mi West 6.9 mph - N/A   Overcast
11:35 PM 37.4 °F 32.1 °F 28.4 °F 70% 30.05 in 10.0 mi West 6.9 mph - N/A   Overcast
11:55 PM 35.6 °F 30.7 °F 28.4 °F 75% 30.06 in 10.0 mi West 5.8 mph - N/A   Overcast